Regional Weather Roundup
Issued by NWS

Home | Current Version | Previous Version | Text Only | Print | Product List | Glossary On
Versions: 1 2 3 4 5 6 7 8 9 10 11 12 13 14 15 16 17 18 19 20 21 22 23 24 25 26 27 28 29 30 31 32 33 34 35 36 37 38 39 40 41 42 43 44 45 46 47 48 49 50
000
ASHW40 PHFO 021910
RWRHI

WEATHER ROUNDUP FOR HAWAII
NATIONAL WEATHER SERVICE HONOLULU HI
900 AM HST WED SEP 02 2015

THIS IS AN AUTOMATED REPORT THAT HAS NOT BEEN QUALITY CONTROLLED.

NOTE..."FAIR" INDICATES FEW OR NO CLOUDS BELOW 12,000 FEET WITH NO
SIGNIFICANT WEATHER AND/OR OBSTRUCTIONS TO VISIBILITY.

* - THESE SITES REPORT LIMITED FIELDS

HIZ001>004-022000-
KAUAI-NIIHAU-

CITY           SKY/WX    TMP DP  RH WIND       PRES   REMARKS
LIHUE APT      SUNNY     82  77  84 S7        29.85S HX  90
PORT ALLEN*    NOT AVBL
POIPU*           N/A     82 N/A N/A E1          N/A
PRINCEVILLE*     N/A     82 N/A N/A MISG        N/A
KOKOLE POINT*  NOT AVBL
MOLOAA DAIRY*    N/A     84  77  79 W3G12       N/A  HX  94
WAIMEA HTS*    NOT AVBL
PUU OPAE*      NOT AVBL
PUU LUA*       NOT AVBL
MAKAHA RIDGE*  NOT AVBL
$$

HIZ005>011-022000-
OAHU-

CITY           SKY/WX    TMP DP  RH WIND       PRES   REMARKS
HONOLULU       PTSUNNY   82  76  81 S5        29.86R
KALAELOA       MOSUNNY   82  75  79 SE6       29.87S
KANEOHE MCB    MOSUNNY   85  72  65 SW5       29.83R HX  91
WHEELER FIELD  FAIR      81  74  79 SE6       29.87R
BELLOWS*       NOT AVBL
KAHUKU*        NOT AVBL
WHEELER*       NOT AVBL
WAIANAE HARBOR NOT AVBL
DILLINGHAM*      N/A     77  68  73 MISG        N/A
KAHUKU TRN*      N/A     84  75  74 SW2G10      N/A  HX  92
KAWAILOA*        N/A     79  72  78 S3          N/A
KII*             N/A     84  75  74 CALM        N/A  HX  92
MAKUA RANGE*     N/A     84  73  70 W6          N/A  HX  91
OAHU FOREST NW NOT AVBL
SCHOFIELD BRK*   N/A     70  64  83 MISG        N/A
SCHOFIELD S*   NOT AVBL
WAIANAE VLY*   NOT AVBL
KUAOKALA*      NOT AVBL
HONOULIUULI*   NOT AVBL
MOKUOLOE IS*   NOT AVBL
PALEHUA*       NOT AVBL
WAIAWA PHB*    NOT AVBL
$$

HIZ012>013-022000-
MOLOKAI-

CITY           SKY/WX    TMP DP  RH WIND       PRES   REMARKS
MOLOKAI AIRPT  MOSUNNY   83  75  77 S9        29.88S HX  90
KALAUPAPA      NOT AVBL
MAKAPULAPAI*   NOT AVBL
MOLOKAI 1*     NOT AVBL
PUU ALII*      NOT AVBL
$$

HIZ016-022000-
KAHOOLAWE-

CITY           SKY/WX    TMP DP  RH WIND       PRES   REMARKS
KAHOOLAWE*     NOT AVBL
HAKIOAWA*      NOT AVBL
HONOKANAIA*      N/A     82  77  84 S6G13     29.82S HX  90
KANELOA*         N/A     79  73  83 SW7       29.96R
KEALIALALO*    NOT AVBL
LUA MAKIKA*    NOT AVBL
$$

HIZ014>015-022000-
LANAI-

CITY           SKY/WX    TMP DP  RH WIND       PRES   REMARKS
LANAI CITY     PTSUNNY   78  75  90 S8        29.95S
LANAI 1*       NOT AVBL
$$

HIZ017>028-022000-
MAUI-

CITY           SKY/WX    TMP DP  RH WIND       PRES   REMARKS
KAHULUI        MOSUNNY   84  75  74 SW21G28   29.87R HX  92
KAPALUA-W MAUI MOSUNNY   84  72  65 S17       29.88R
HANA AIRPORT   SUNNY     84  75  74 NW5       29.89S HX  92
HANA*          NOT AVBL
HALEAKALA SUMM   N/A     54  48  82 S6G22       N/A
MAALAEA BAY*   NOT AVBL
HALEAKALA*     NOT AVBL
KAUPO GAP*     NOT AVBL
KULA 1*          N/A     64  56  76 SE6G18      N/A
$$

HIZ023>026-022000-
BIG ISLAND OF HAWAII COAST AND LOWER SLOPES-

CITY           SKY/WX    TMP DP  RH WIND       PRES   REMARKS
KAILUA KONA    CLOUDY    83  75  77 S14       29.87S HX  90
HILO           MOSUNNY   87  75  67 CALM      29.88R HX  96
HONOKAA*       NOT AVBL
KAWAIHAE MWT*  NOT AVBL
KAWAIHAE*        N/A     84 N/A N/A NW8         N/A
SOUTH POINT*   NOT AVBL
UPOLU AIRPORT* NOT AVBL
KAMUELA*       NOT AVBL
HAKALAU*         N/A     68  60  74 NE5         N/A
KALOKO-HONOKO* NOT AVBL
PALI 2*          N/A     75  70  83 SW5         N/A
KEALAKOMO*     NOT AVBL
KAUPULEHU*     NOT AVBL
KAPAPALA*        N/A     80  72  76 S3          N/A
LOWER KAHUKU*  NOT AVBL
PUHE CS*       NOT AVBL
PUHO CS*       NOT AVBL
PTA KEAMUKU*     N/A     75  64  69 CALM        N/A
WAIKOLOA*      NOT AVBL
$$

HIZ027>028-022000-
BIG ISLAND OF HAWAII INTERIOR AND SUMMMITS-

CITY           SKY/WX    TMP DP  RH WIND       PRES   REMARKS
BRADSHAW FIELD SUNNY     68  53  58 W6        30.28R
MK VISITOR CEN   N/A     59  36  41 S3          N/A
MAUNA KEA*       N/A     43  34  70 S2          N/A
MAUNA LOA*       N/A     52  39  62 MISG        N/A
MAUNA LOA 1*   NOT AVBL
PTA KIPUKA*      N/A     70  54  56 SW8G16      N/A
PTA RANGE 17*    N/A     70  52  52 W6          N/A
PTA WEST*        N/A    N/A N/A N/A W6G14       N/A
NENE CABIN*    NOT AVBL
AHUMOA*        NOT AVBL
PTA PORTABLE*  NOT AVBL
PUU MALI*        N/A     64  61  88 NE7         N/A
$$

HIC003-022000-
NORTHWEST ISLANDS-

CITY           SKY/WX    TMP DP  RH WIND       PRES   REMARKS
MIDWAY ISLAND  SUNNY     82  77  83 SE14      29.94R HAZE    HX  91
MIDWAY NOS*    NOT AVBL
FRENCH FRIGATE NOT AVBL
$$

PHZ110>124-180-022000-
BUOY REPORTS

STATION/POSITION TIME  TEMP    WIND        PRES    WAVE   SWELL
                       AIR SEA DIR/SP/G            HT/PER HT/DIR
                 (UTC) (F)     (DEG/KT/KT) (MB)    (FT/S) (FT/D)
BUOY 51001       1844   81 83  360/ 17/ 21 1011.0   12/12   8/100
BUOY 51101       1900   81 82  350/ 17/ 21 1010.5S  12/11  10/ 80
BUOY 51100       NOT AVBL
BUOY 51002       1900   83 84  230/  2/  4 1011.7R   8/17   8/ 90
BUOY 51003       1900   83 85   90/  2/  4 1011.2R   8/16   8/ 90
BUOY 51004       1828   82 84   90/  6/  8 1012.7R   7/11   7/110
BARBERS PT BUOY  NOT AVBL
WAIMEA BAY BUOY  1900      83                N/A     9/11   7/ 20
KAILUA BAY BUOY  1900      83                N/A    10/11   7/ 20
LANAI BUOY       NOT AVBL
BARBERS PT 2     1900      83                N/A     3/11   2/210
PAUWELA MAUI     1900      82                N/A    11/15   8/ 90
HILO             NOT AVBL
KANEOHE BAY BUOY 1900      83                N/A     8/11   5/ 20
HANALEI KAUAI    1900      83                N/A    11/11   8/ 50
KAHULUI HARBOR   1900   82 83  180/ 13/ 18 1011.0R
HONOLULU HARBOR  1900   82 83  210/  3/  4 1011.3S
KILO NALU        NOT AVBL
HILO HARBOR      1900   83 81  360/  2/  4 1011.3R
MOKUOLOE         1900   87 85  120/  2/  4 1010.9S
NAWILIWILI       1900   81 84  280/  1/  3 1010.6S
WHOTS BUOY       NOT AVBL
BUOY 51028       NOT AVBL
$$

......................KEY........................................
  SKY/WX - SKY CONDITIONS/PRESENT WEATHER
  TMP    - TEMPERATURE IN FAHRENHEIT
  DWPT   - DEWPOINT IN FAHRENHEIT
  RH     - RELATIVE HUMIDITY IN PERCENT
  WIND   - DIRECTION AND SPEED /MPH FOR ISLANDS...KTS FOR BUOYS/
  PRES   - MEAN SEA LEVEL PRESSURE IN INCHES OF HG
  VSB    - VISIBILITY IN MILES
  HX     - HEAT INDEX
  WCI    - WIND CHILL INDEX
  VRB    - VARIABLE WIND DIRECTION
  N/A    - NOT AVAILABLE


USA.gov is the U.S. government's official web portal to all federal, state and local government web resources and services.